Regional Weather Roundup
Issued by NWS

Home | Current Version | Previous Version | Graphics & Text | Print | Product List | Glossary On
Versions: 1 2 3 4 5 6 7 8 9 10 11 12 13 14 15 16 17 18 19 20 21 22 23 24 25 26 27 28 29 30 31 32 33 34 35 36 37 38 39 40 41 42 43 44 45 46 47 48 49 50
000
ASUS43 KFSD 211802
RWRSD

WEATHER ROUNDUP FOR SOUTH DAKOTA
NATIONAL WEATHER SERVICE SIOUX FALLS SD
100 PM CDT THU SEP 21 2017

NOTE: "FAIR" INDICATES FEW OR NO CLOUDS BELOW 12,000 FEET WITH NO
SIGNIFICANT WEATHER AND/OR OBSTRUCTIONS TO VISIBILITY.


SDZ001>005-009-010-012>017-211900-
NORTHWEST AND NORTH CENTRAL SOUTH DAKOTA

CITY           SKY/WX    TMP DP  RH WIND       PRES   REMARKS
BUFFALO          N/A     69  37  30 NE17G25   29.64S
FAITH            N/A     78  48  34 SW13      29.64F
MOBRIDGE       LGT RAIN  81  60  48 S30G40    29.60F
$$

SDZ012>016-024>037-041>051-057-063-072>074-211900-
SOUTHWEST AND SOUTH CENTRAL SOUTH DAKOTA

CITY           SKY/WX    TMP DP  RH WIND       PRES   REMARKS
RAPID CTY ARPT SUNNY     73  39  29 N13       29.69R
PIERRE         SUNNY     80  58  46 SE26G33   29.62F
CUSTER         SUNNY     73  30  20 SW13G24   29.78S
ELLSWORTH AFB  SUNNY     71  39  31 N15       29.67F
PHILIP         SUNNY     84  52  33 SW14      29.62F
PINE RIDGE     SUNNY     82  47  29 S12       29.67F
SPEARFISH      FAIR      64  37  36 N12       29.75R
WINNER         FAIR      80  60  50 S17G24    29.68F
$$

SDZ004>011-016>023-039-040-211900-
NORTHEAST SOUTH DAKOTA

CITY           SKY/WX    TMP DP  RH WIND       PRES   REMARKS
ABERDEEN       MOSUNNY   77  52  41 S20G26    29.71F
WATERTOWN      MOSUNNY   77  60  55 S18G28    29.75F
SISSETON         N/A     76  49  38 SE15      29.76F
$$

SDZ017-020-022-023-036>040-048>070-211900-
SOUTHEAST SOUTH DAKOTA

CITY           SKY/WX    TMP DP  RH WIND       PRES   REMARKS
SIOUX FALLS    PTSUNNY   81  71  71 S16G24    29.76F
HURON          CLOUDY    77  64  64 S15G26    29.71F
MITCHELL       SUNNY     79  65  62 S18G25    29.72F
YANKTON        MOSUNNY   77  69  76 S17       29.74F
$$

ABBREVIATIONS USED IN REMARKS
   TC - TEMPERATURE IN CELSIUS
  WCI - WIND CHILL INDEX
   HX - HEAT INDEX
  VSB - VISIBILITY




USA.gov is the U.S. government's official web portal to all federal, state and local government web resources and services.